RH
10 11 10 9 10 16 25 39 68 83 81 80 83 80 81 89 91 85 87 86 84 81 90 93 91 96 96 93 96 93 82 60
9 11 12 12 13 17 27 39 64 80 85 88 85 88 88 89 89 87 88 88 89 88 89 94 93 96 95 91 94 93 87 53
8 9 12 16 16 20 30 35 48 75 79 71 62 71 70 76 83 90 88 90 91 92 89 94 94 94 96 94 93 93 89 66
11 10 12 16 19 25 29 34 42 70 69 60 60 69 79 88 87 86 88 86 90 92 91 95 94 94 95 94 91 88 84 74
18 13 13 15 19 27 31 34 44 70 60 52 61 74 80 76 78 81 92 90 90 91 96 94 95 94 93 93 88 86 75 70
22 16 14 12 17 26 36 36 41 58 54 49 58 62 54 58 72 81 87 94 92 96 95 96 95 95 94 92 90 81 72 67
24 19 16 13 15 32 42 42 42 50 52 53 56 58 53 51 69 81 90 96 97 98 96 95 94 93 94 93 88 80 73 68
29 25 17 16 20 38 48 46 44 49 54 56 55 56 56 59 64 78 90 97 98 98 97 96 96 93 91 90 88 79 72 69
33 28 28 26 31 54 58 46 45 48 55 54 53 52 57 56 71 82 89 96 94 95 94 94 94 92 92 91 86 77 75 75
41 36 30 34 47 69 74 49 45 51 55 57 57 59 61 67 74 85 93 94 96 97 97 96 95 93 91 89 81 82 78 79
61 44 31 36 58 73 79 60 53 53 56 57 60 65 63 68 81 92 94 96 96 96 97 97 96 96 93 89 83 80 77 78
73 64 44 40 55 70 79 66 57 59 55 62 68 65 66 72 75 90 94 96 95 93 95 96 96 96 95 92 84 82 79 81
75 79 70 63 68 72 80 70 64 66 58 66 69 65 70 71 77 92 92 94 94 92 94 95 93 92 90 85 85 84 86 89
76 78 87 79 78 81 80 77 71 66 65 70 67 66 72 75 77 83 93 92 93 91 93 91 86 88 89 88 86 87 86 83
79 82 82 84 85 82 83 81 74 66 66 68 65 64 68 69 68 75 87 86 92 93 91 90 90 92 88 89 90 87 85 77
81 85 85 84 86 88 83 81 78 71 73 67 70 63 65 67 70 68 68 76 82 83 83 85 89 90 90 92 89 90 88 77
80 84 84 87 87 88 89 92 82 62 72 77 68 62 69 72 72 75 76 73 71 77 76 76 83 78 96 97 96 87 85 82
82 86 89 89 90 88 88 88 84 85 86 86 85 86 89 92 83 85 86 86 84 86 86 87 87 86 97 96 97 89 92 91
88 90 92 93 90 92 86 80 82 84 86 86 84 85 87 87 88 91 94 93 94 93 92 88 87 86 96 97 97 86 88 89
Wind_Speed
16 17 18 19 18 15 15 15 18 15 10 9 8 8 8 6 7 8 11 10 13 13 7 8 12 10 9 9 10 8 10 10
18 17 17 17 15 14 15 17 19 13 10 10 10 9 7 7 7 11 12 12 13 12 9 8 11 11 11 13 8 10 11 10
16 19 18 18 15 14 16 17 19 14 10 11 11 10 8 8 8 10 11 13 12 11 11 9 12 11 13 13 11 9 8 7
16 17 18 18 17 16 16 18 19 16 18 13 10 6 4 5 8 9 12 13 12 13 13 11 13 11 12 14 13 14 11 10
15 17 17 19 17 16 16 17 18 16 21 17 16 10 8 8 9 9 8 12 13 14 12 13 12 10 13 14 12 12 13 13
13 13 16 19 18 15 13 16 18 18 20 16 13 14 11 10 8 12 12 11 12 12 13 13 13 10 12 15 15 15 13 12
10 12 15 17 16 14 13 15 17 18 18 17 15 14 10 9 9 8 8 7 9 10 15 13 13 13 12 15 15 18 13 12
8 9 9 14 12 13 12 16 18 18 17 17 15 13 13 9 10 7 8 5 6 10 12 15 13 12 13 12 12 14 13 12
11 8 6 7 9 12 12 16 17 17 16 14 11 10 7 8 7 6 6 6 7 9 15 14 15 15 13 11 11 12 11 11
17 13 4 7 11 10 11 14 17 16 15 12 11 10 9 7 7 8 5 6 5 6 9 12 15 17 17 13 9 9 10 9
20 17 2 5 13 11 9 13 12 14 13 11 10 9 8 6 8 9 8 6 9 9 9 8 11 12 16 15 11 10 9 8
17 17 14 4 14 11 10 14 13 12 12 10 9 10 9 8 8 8 9 9 10 11 10 10 9 10 11 11 12 10 11 10
15 17 14 11 9 9 8 11 11 9 10 9 9 10 11 8 8 8 10 10 10 11 10 10 8 8 9 9 9 8 7 8
16 17 15 10 5 5 7 5 8 10 8 9 10 11 10 8 9 10 8 11 11 10 11 11 12 10 10 9 9 10 11 12
15 15 15 14 11 6 7 5 7 8 10 9 10 11 10 10 9 12 11 12 10 11 11 11 12 11 11 11 11 11 11 12
14 15 14 14 14 15 4 7 7 9 8 9 8 9 9 8 8 8 8 10 12 12 13 13 12 11 8 12 12 12 12 12
14 15 16 15 15 14 14 10 2 9 6 4 8 8 7 7 8 8 6 6 5 3 7 11 12 8 9 9 5 10 11 11
13 13 13 13 13 13 12 11 10 12 11 10 10 10 11 10 7 7 7 2 4 8 10 12 11 9 12 8 6 2 3 3
13 12 12 12 12 13 11 11 12 12 12 11 11 11 12 11 12 12 11 11 11 10 11 11 10 11 15 10 6 11 11 12
Wind_Direction
240 229 231 230 228 214 199 197 179 183 192 195 182 188 190 177 197 197 185 195 197 200 196 192 169 164 168 170 174 198 195 186
238 240 233 231 218 210 202 197 176 180 184 185 186 187 183 194 189 199 190 192 196 203 208 194 164 164 172 175 173 192 212 186
245 236 227 227 213 223 212 203 189 178 184 195 200 191 199 196 187 193 194 193 193 196 201 188 178 177 169 176 176 183 204 183
261 251 229 224 203 220 214 204 189 179 192 200 195 152 157 188 197 206 198 199 194 198 199 182 177 173 172 179 176 181 187 191
278 250 245 223 221 205 209 204 177 185 202 196 179 178 194 199 200 205 191 194 197 197 182 177 175 174 177 179 185 187 186 177
293 265 236 237 217 195 204 205 183 186 205 203 176 204 200 183 207 194 193 190 198 184 176 176 176 180 183 178 186 196 190 180
291 279 240 218 213 174 192 201 195 186 198 204 195 204 214 202 195 195 192 182 191 188 180 173 169 173 177 182 181 196 185 190
317 293 234 221 181 167 183 201 192 185 192 196 193 204 207 200 206 198 184 174 191 188 182 173 172 171 171 176 189 192 185 187
347 326 242 226 172 149 199 197 188 179 187 188 193 189 192 209 171 184 195 185 191 193 187 181 181 172 171 176 189 190 187 189
354 332 241 198 138 157 201 204 183 175 187 179 179 179 199 170 160 176 167 159 152 156 161 175 174 175 170 177 175 175 180 184
348 340 14 172 136 154 190 226 169 176 185 177 166 183 168 144 153 164 161 148 150 144 135 141 159 151 155 165 169 172 179 185
352 338 335 179 130 154 182 219 171 165 180 180 166 170 155 155 151 153 155 144 148 147 143 143 142 139 145 151 160 156 172 178
1 352 339 32 112 150 183 221 155 161 180 170 168 166 145 156 150 145 154 150 153 151 147 138 139 143 145 144 149 155 166 189
7 358 2 349 123 170 185 221 145 164 175 179 177 173 145 151 157 157 152 152 159 162 161 161 165 169 171 174 176 178 195 206
10 359 355 358 345 175 170 185 174 158 173 183 183 175 151 164 166 158 164 164 156 160 171 172 171 174 181 180 181 189 201 208
11 1 352 354 2 357 180 175 188 166 181 195 176 174 156 162 154 160 155 160 165 175 179 180 174 182 187 186 193 197 204 213
9 1 357 353 358 360 353 19 87 175 200 162 184 152 152 160 157 157 156 162 169 152 176 180 180 74 24 39 198 197 207 220
7 5 360 352 355 3 358 12 52 65 66 52 53 66 64 51 68 76 64 138 92 52 44 74 72 50 16 35 44 212 209 52
9 4 357 2 1 16 13 22 49 57 58 53 47 57 62 58 63 68 67 60 64 69 61 57 58 31 11 15 21 88 77 62